HS5SQI-1 Weather Reports


time (UTC)temp
C
wind
direction
speed
KPH
gust
KPH
rain 1hr
cm
rain 24hr
cm
rain mn
cm
humidity
%
barometer
mb
20260504070142 35 0 0.0 0.0 0.00 0.00 0.00 64 965.0
20260504050233 32 0 0.0 0.0 0.00 0.00 0.00 87 967.0
20260504045211 32 0 0.0 0.0 0.00 0.00 0.00 90 967.0
20260504044149 31 0 0.0 0.0 0.00 0.00 0.00 90 968.0
20260504043127 31 0 0.0 0.0 0.00 0.00 0.00 97 968.0
20260504042105 31 0 0.0 0.0 0.00 0.00 0.00 99 968.0
20260504041043 30 0 0.0 0.0 0.00 0.00 0.00 99 968.0
20260504040021 30 0 0.0 0.0 0.00 0.00 0.00 99 968.0
20260504034959 30 0 0.0 0.0 0.00 0.00 0.00 99 968.0
20260504033937 29 0 0.0 0.0 0.00 0.00 0.00 99 968.0
20260504032915 28 0 0.0 0.0 0.00 0.00 0.00 99 968.0
20260504031853 28 0 0.0 0.0 0.00 0.00 0.00 99 968.0
20260504030831 28 0 0.0 0.0 0.00 0.00 0.00 99 968.0
20260504025809 28 0 0.0 0.0 0.00 0.00 0.00 99 969.0
20260504024747 27 0 0.0 0.0 0.00 0.00 0.00 99 969.0
20260504023725 27 0 0.0 0.0 0.00 0.00 0.00 99 969.0
20260504022703 27 0 0.0 0.0 0.00 0.00 0.00 99 969.0
20260504021641 27 0 0.0 0.0 0.00 0.00 0.00 99 969.0
20260504020619 26 0 0.0 0.0 0.00 0.00 0.00 99 969.0
20260504015557 26 0 0.0 0.0 0.00 0.00 0.00 99 968.0
20260504014535 26 0 0.0 0.0 0.00 0.00 0.00 99 968.0
20260504013513 26 0 0.0 0.0 0.00 0.00 0.00 99 968.0
20260504012451 26 0 0.0 0.0 0.00 0.00 0.00 99 968.0
20260504011429 25 0 0.0 0.0 0.00 0.00 0.00 99 968.0
20260504010407 26 0 0.0 0.0 0.00 0.00 0.00 99 968.0
20260504005345 26 0 0.0 0.0 0.00 0.00 0.00 99 968.0
20260504004323 26 0 0.0 0.0 0.00 0.00 0.00 99 968.0
20260504003301 26 0 0.0 0.0 0.00 0.00 0.00 99 967.0
20260504002239 25 0 0.0 0.0 0.00 0.00 0.00 99 967.0
20260504001217 25 0 0.0 0.0 0.00 0.00 0.00 99 967.0
20260504000155 25 0 0.0 0.0 0.00 0.00 0.00 99 967.0
20260503235133 24 0 0.0 0.0 0.00 0.00 0.00 99 967.0
20260503234111 24 0 0.0 0.0 0.00 0.00 0.00 99 967.0
20260503233049 24 0 0.0 0.0 0.00 0.00 0.00 99 967.0
20260503232027 24 0 0.0 0.0 0.00 0.00 0.00 99 967.0
20260503231005 25 0 0.0 0.0 0.00 0.00 0.00 99 967.0
20260503225943 25 0 0.0 0.0 0.00 0.00 0.00 99 967.0
20260503224921 26 0 0.0 0.0 0.00 0.00 0.00 99 967.0
20260503223859 26 0 0.0 0.0 0.00 0.00 0.00 99 967.0
20260503222836 26 0 0.0 0.0 0.00 0.00 0.00 99 967.0
20260503221814 26 0 0.0 0.0 0.00 0.00 0.00 99 966.0
20260503220752 26 0 0.0 0.0 0.00 0.00 0.00 99 966.0
20260503215730 26 0 0.0 0.0 0.00 0.00 0.00 99 966.0
20260503214709 26 0 0.0 0.0 0.00 0.00 0.00 99 966.0
20260503213647 26 0 0.0 0.0 0.00 0.00 0.00 99 966.0
20260503212625 25 0 0.0 0.0 0.00 0.00 0.00 99 966.0
20260503211602 25 0 0.0 0.0 0.00 0.00 0.00 99 966.0
20260503210540 25 0 0.0 0.0 0.00 0.00 0.00 99 966.0
20260503205518 25 0 0.0 0.0 0.00 0.00 0.00 99 966.0
20260503204456 26 0 0.0 0.0 0.00 0.00 0.00 99 966.0
20260503203434 26 0 0.0 0.0 0.00 0.00 0.00 99 965.0
20260503202412 25 0 0.0 0.0 0.00 0.00 0.00 99 966.0
20260503201350 25 0 0.0 0.0 0.00 0.00 0.00 99 965.0
20260503200328 25 0 0.0 0.0 0.00 0.00 0.00 99 966.0
20260503195322 26 0 0.0 0.0 0.00 0.00 0.00 99 965.0
20260503194259 26 0 0.0 0.0 0.00 0.00 0.00 99 965.0
20260503193237 25 0 0.0 0.0 0.00 0.00 0.00 99 965.0
20260503192215 25 0 0.0 0.0 0.00 0.00 0.00 99 965.0
20260503191153 26 0 0.0 0.0 0.00 0.00 0.00 99 966.0
20260503190131 26 0 0.0 0.0 0.00 0.00 0.00 99 966.0
20260503185109 25 0 0.0 0.0 0.00 0.00 0.00 99 966.0
20260503184047 25 0 0.0 0.0 0.00 0.00 0.00 99 966.0
20260503183025 25 0 0.0 0.0 0.00 0.00 0.00 99 966.0
20260503182004 26 0 0.0 0.0 0.00 0.00 0.00 99 966.0
20260503180941 26 0 0.0 0.0 0.00 0.00 0.00 99 966.0
20260503175919 26 0 0.0 0.0 0.00 0.00 0.00 99 966.0
20260503174857 26 0 0.0 0.0 0.00 0.00 0.00 99 966.0
20260503173835 27 0 0.0 0.0 0.00 0.00 0.00 99 966.0
20260503172813 27 0 0.0 0.0 0.00 0.00 0.00 99 966.0
20260503171751 27 0 0.0 0.0 0.00 0.00 0.00 99 966.0
20260503170729 26 0 0.0 0.0 0.00 0.00 0.00 99 966.0
20260503150238 26 0 0.0 0.0 0.00 0.00 0.00 99 966.0
20260503130836 28 0 0.0 0.0 0.00 0.00 0.00 99 963.0
20260503110412 34 0 0.0 0.0 0.00 0.00 0.00 58 962.0
20260503100200 35 0 0.0 0.0 0.00 0.00 0.00 52 961.0
20260503080757 36 0 0.0 0.0 0.00 0.00 0.00 52 962.0
20260503072629 36 0 0.0 0.0 0.00 0.00 0.00 56 963.0
20260503071607 35 0 0.0 0.0 0.00 0.00 0.00 57 963.0
20260503070545 35 0 0.0 0.0 0.00 0.00 0.00 55 963.0